Weather History for PAHO - May, 2013

Change the Weather History Date:

Friday, May 31, 2013

  Actual Average Record
Temperature  
Mean Temperature 47 °F -  
Max Temperature 55 °F 53 °F 71 °F (1993)
Min Temperature 41 °F 39 °F 30 °F (1943)
Degree Days  
Heating Degree Days 18    
Moisture  
Dew Point 42 °F    
Average Humidity 76    
Maximum Humidity 86    
Minimum Humidity 67    
Precipitation  
Precipitation 0.06 in - - ()
Sea Level Pressure  
Sea Level Pressure 30.12 in    
Wind  
Wind Speed 5 mph (WSW)    
Max Wind Speed 20 mph    
Max Gust Speed -    
Visibility 10 miles    
Events Rain    
Averages and records for this station are not official NWS values.
T = Trace of Precipitation, MM = Missing Value Source: NWS Daily Summary

Daily Weather History Graph

Daily Weather History Graph

Search for Another Location

Airport or City:

Trip Planner

Search our weather history database for the weather conditions in past years. The results will help you decide how hot, cold, wet, or windy it might be!

Date:

Astronomy

May. 31, 2013 Rise Set
Actual Time 4:59 AM AKDT 11:09 PM AKDT
Civil Twilight 3:40 AM AKDT 12:29 AM AKDT
Nautical Twilight Sun does not set Sun does not set
Astronomical Twilight Sun does not set Sun does not set
Moon 2:26 AM AKDT (5/31) 1:55 PM AKDT (5/31)
Length of Visible Light 20h 48m
Length of Day
18h 09m
Waning Gibbous, 50% of the Moon is Illuminated
May 31
Waning Gibbous
Jun 8
New
Jun 16
First Quarter
Jun 23
Full
Jun 29
Last Quarter

Hourly Weather History & Observations

Time (AKDT) Temp. Dew Point Humidity Pressure Visibility Wind Dir Wind Speed Gust Speed Precip Events Conditions
12:53 AM 46.0 °F 39.9 °F 79% 30.05 in 10.0 mi Calm Calm - N/A   Clear
1:53 AM 45.0 °F 39.9 °F 82% 30.06 in 10.0 mi Calm Calm - N/A   Partly Cloudy
2:53 AM 43.0 °F 39.0 °F 86% 30.06 in 10.0 mi Calm Calm - N/A   Partly Cloudy
3:53 AM 43.0 °F 39.0 °F 86% 30.06 in 10.0 mi Calm Calm - N/A   Partly Cloudy
4:53 AM 41.0 °F 37.0 °F 86% 30.07 in 10.0 mi Calm Calm - N/A   Clear
5:53 AM 43.0 °F 39.0 °F 86% 30.07 in 10.0 mi Calm Calm - N/A   Clear
6:53 AM 46.0 °F 41.0 °F 83% 30.09 in 10.0 mi Calm Calm - N/A   Clear
7:53 AM 48.9 °F 42.1 °F 77% 30.10 in 10.0 mi Calm Calm - N/A   Partly Cloudy
8:53 AM 50.0 °F 42.1 °F 74% 30.11 in 10.0 mi SSW 5.8 mph - N/A   Clear
9:22 AM 51.8 °F 42.8 °F 71% 30.11 in 10.0 mi WNW 3.5 mph - N/A   Mostly Cloudy
9:53 AM 50.0 °F 42.1 °F 74% 30.12 in 10.0 mi WSW 6.9 mph - N/A   Mostly Cloudy
10:00 AM 51.8 °F 42.8 °F 71% 30.11 in 10.0 mi WSW 8.1 mph - N/A   Partly Cloudy
10:53 AM 52.0 °F 43.0 °F 71% 30.12 in 10.0 mi WSW 8.1 mph - N/A   Mostly Cloudy
11:53 AM 53.1 °F 43.0 °F 69% 30.13 in 10.0 mi WSW 15.0 mph - N/A   Clear
12:53 PM 53.1 °F 43.0 °F 69% 30.12 in 10.0 mi WSW 15.0 mph - N/A   Clear
1:19 PM 53.6 °F 42.8 °F 67% 30.12 in 10.0 mi WSW 15.0 mph - N/A   Mostly Cloudy
1:53 PM 53.1 °F 43.0 °F 69% 30.13 in 10.0 mi West 15.0 mph - N/A   Mostly Cloudy
2:53 PM 52.0 °F 43.0 °F 71% 30.13 in 10.0 mi WSW 16.1 mph - N/A   Mostly Cloudy
3:53 PM 53.1 °F 43.0 °F 69% 30.14 in 10.0 mi WSW 19.6 mph - N/A   Overcast
4:53 PM 51.1 °F 43.0 °F 74% 30.14 in 10.0 mi WSW 15.0 mph - N/A   Overcast
5:53 PM 50.0 °F 43.0 °F 77% 30.14 in 10.0 mi WSW 12.7 mph - N/A   Mostly Cloudy
6:53 PM 50.0 °F 43.0 °F 77% 30.15 in 10.0 mi WSW 11.5 mph - N/A   Mostly Cloudy
7:53 PM 53.1 °F 43.0 °F 69% 30.15 in 10.0 mi West 8.1 mph - N/A   Mostly Cloudy
8:53 PM 52.0 °F 43.0 °F 71% 30.16 in 10.0 mi West 5.8 mph - N/A   Overcast
9:53 PM 48.9 °F 43.0 °F 80% 30.17 in 7.0 mi West 6.9 mph - 0.01 in Rain Light Rain
10:53 PM 48.9 °F 44.1 °F 83% 30.17 in 5.0 mi West 4.6 mph - 0.04 in Rain Rain
11:53 PM 48.0 °F 43.0 °F 83% 30.18 in 10.0 mi WSW 4.6 mph - 0.01 in   Scattered Clouds